TimeCDT,TemperatureF,Dew PointF,Humidity,Sea Level PressureIn,VisibilityMPH,Wind Direction,Wind SpeedMPH,Gust SpeedMPH,PrecipitationIn,Events,Conditions,WindDirDegrees,DateUTC
12:15 AM,55.4,33.1,43,29.87,10.0,SW,10.4,-,N/A,,Clear,230,2014-03-11 05:15:00
12:35 AM,55.4,33.8,44,29.86,10.0,SW,9.2,-,N/A,,Clear,230,2014-03-11 05:35:00
12:55 AM,56.7,33.3,41,29.84,10.0,SW,11.5,-,N/A,,Clear,230,2014-03-11 05:55:00
1:15 AM,57.0,32.0,39,29.84,10.0,SW,9.2,-,N/A,,Clear,230,2014-03-11 06:15:00
1:35 AM,54.3,32.0,43,29.83,10.0,SSW,9.2,-,N/A,,Clear,210,2014-03-11 06:35:00
1:55 AM,53.4,31.8,44,29.82,10.0,SW,10.4,-,N/A,,Clear,230,2014-03-11 06:55:00
2:15 AM,55.4,31.6,40,29.81,10.0,SW,10.4,-,N/A,,Clear,230,2014-03-11 07:15:00
2:35 AM,53.1,31.1,43,29.81,10.0,SW,6.9,-,N/A,,Clear,230,2014-03-11 07:35:00
2:55 AM,51.1,31.1,46,29.80,10.0,SW,8.1,-,N/A,,Clear,230,2014-03-11 07:55:00
3:15 AM,52.0,31.5,46,29.80,10.0,SW,10.4,-,N/A,,Clear,230,2014-03-11 08:15:00
3:35 AM,53.8,32.0,44,29.79,10.0,SW,10.4,-,N/A,,Clear,230,2014-03-11 08:35:00
3:55 AM,54.1,32.5,44,29.78,10.0,WSW,10.4,-,N/A,,Clear,240,2014-03-11 08:55:00
4:15 AM,58.5,33.6,39,29.77,10.0,WSW,11.5,-,N/A,,Clear,240,2014-03-11 09:15:00
4:35 AM,59.5,33.4,37,29.77,10.0,SW,11.5,-,N/A,,Clear,230,2014-03-11 09:35:00
4:55 AM,59.9,33.8,38,29.76,10.0,SW,10.4,-,N/A,,Clear,230,2014-03-11 09:55:00
5:15 AM,59.9,33.8,38,29.75,10.0,SW,10.4,-,N/A,,Clear,230,2014-03-11 10:15:00
5:35 AM,60.8,34.0,37,29.75,10.0,WSW,13.8,19.6,N/A,,Clear,240,2014-03-11 10:35:00
5:55 AM,61.0,34.0,36,29.74,10.0,WSW,15.0,21.9,N/A,,Clear,250,2014-03-11 10:55:00
6:15 AM,61.2,33.8,36,29.74,10.0,WSW,17.3,24.2,N/A,,Clear,250,2014-03-11 11:15:00
6:35 AM,61.2,33.4,35,29.73,10.0,WSW,17.3,23.0,N/A,,Clear,250,2014-03-11 11:35:00
6:55 AM,61.2,33.3,35,29.74,10.0,WSW,18.4,24.2,N/A,,Clear,240,2014-03-11 11:55:00
7:15 AM,61.2,33.1,35,29.74,10.0,WSW,19.6,25.3,N/A,,Clear,250,2014-03-11 12:15:00
7:35 AM,61.0,32.9,35,29.74,10.0,WSW,20.7,25.3,N/A,,Clear,250,2014-03-11 12:35:00
7:55 AM,61.0,32.9,35,29.74,10.0,WSW,20.7,-,N/A,,Clear,250,2014-03-11 12:55:00
8:15 AM,60.8,32.9,35,29.74,10.0,WSW,21.9,27.6,N/A,,Clear,250,2014-03-11 13:15:00
8:35 AM,61.7,32.9,34,29.75,10.0,WSW,25.3,29.9,N/A,,Clear,250,2014-03-11 13:35:00
8:55 AM,62.8,32.9,33,29.76,10.0,WSW,26.5,34.5,N/A,,Clear,250,2014-03-11 13:55:00
9:15 AM,64.4,32.4,30,29.76,10.0,WSW,26.5,33.4,N/A,,Clear,250,2014-03-11 14:15:00
9:35 AM,66.4,32.4,28,29.77,10.0,WSW,27.6,35.7,N/A,,Clear,250,2014-03-11 14:35:00
9:55 AM,68.2,32.0,26,29.78,10.0,West,26.5,39.1,N/A,,Clear,260,2014-03-11 14:55:00
10:15 AM,70.2,30.7,23,29.79,10.0,West,29.9,38.0,N/A,,Clear,270,2014-03-11 15:15:00
10:35 AM,71.6,30.4,22,29.79,7.0,West,36.8,43.7,N/A,,Clear,270,2014-03-11 15:35:00
10:55 AM,72.9,29.8,20,29.80,10.0,West,29.9,39.1,N/A,,Clear,270,2014-03-11 15:55:00
11:15 AM,74.8,29.5,19,29.80,10.0,West,32.2,39.1,N/A,,Clear,260,2014-03-11 16:15:00
11:35 AM,75.9,28.4,17,29.81,10.0,West,28.8,41.4,N/A,,Clear,270,2014-03-11 16:35:00
11:55 AM,76.5,27.7,17,29.80,7.0,West,26.5,40.3,N/A,,Clear,280,2014-03-11 16:55:00
12:15 PM,77.2,27.3,16,29.80,10.0,West,32.2,42.6,N/A,,Clear,270,2014-03-11 17:15:00
12:35 PM,77.2,26.6,15,29.80,10.0,West,34.5,41.4,N/A,,Clear,280,2014-03-11 17:35:00
12:55 PM,78.1,26.2,15,29.79,10.0,West,32.2,41.4,N/A,,Clear,270,2014-03-11 17:55:00
1:15 PM,79.5,26.2,14,29.79,10.0,West,32.2,40.3,N/A,,Clear,260,2014-03-11 18:15:00
1:35 PM,79.7,25.2,13,29.78,10.0,West,29.9,39.1,N/A,,Clear,280,2014-03-11 18:35:00
1:55 PM,81.1,24.6,13,29.77,10.0,WSW,26.5,35.7,N/A,,Clear,250,2014-03-11 18:55:00
2:15 PM,81.1,23.2,12,29.77,10.0,West,31.1,35.7,N/A,,Clear,260,2014-03-11 19:15:00
2:35 PM,81.5,22.5,11,29.76,10.0,West,29.9,39.1,N/A,,Clear,270,2014-03-11 19:35:00
2:55 PM,82.6,22.3,11,29.76,10.0,West,27.6,33.4,N/A,,Clear,270,2014-03-11 19:55:00
3:15 PM,82.9,22.8,11,29.75,10.0,West,24.2,33.4,N/A,,Clear,270,2014-03-11 20:15:00
3:35 PM,82.9,23.2,11,29.74,10.0,West,28.8,38.0,N/A,,Clear,260,2014-03-11 20:35:00
3:55 PM,82.9,21.4,10,29.73,10.0,West,24.2,36.8,N/A,,Clear,280,2014-03-11 20:55:00
4:15 PM,82.9,23.5,11,29.73,10.0,West,20.7,32.2,N/A,,Clear,260,2014-03-11 21:15:00
4:35 PM,82.9,21.4,10,29.73,10.0,West,21.9,29.9,N/A,,Clear,280,2014-03-11 21:35:00
4:55 PM,83.3,21.2,10,29.72,10.0,West,20.7,26.5,N/A,,Clear,280,2014-03-11 21:55:00
5:15 PM,83.7,21.2,10,29.73,10.0,West,20.7,28.8,N/A,,Clear,280,2014-03-11 22:15:00
5:35 PM,83.3,21.0,10,29.73,10.0,West,23.0,27.6,N/A,,Clear,270,2014-03-11 22:35:00
5:55 PM,82.8,21.0,10,29.73,10.0,West,16.1,26.5,N/A,,Clear,270,2014-03-11 22:55:00
6:15 PM,82.0,20.7,10,29.73,10.0,West,19.6,24.2,N/A,,Clear,270,2014-03-11 23:15:00
6:35 PM,81.7,19.9,10,29.74,10.0,West,17.3,24.2,N/A,,Clear,270,2014-03-11 23:35:00
6:55 PM,80.8,19.4,10,29.74,10.0,West,18.4,-,N/A,,Clear,260,2014-03-11 23:55:00
7:15 PM,79.9,19.4,11,29.75,10.0,West,13.8,-,N/A,,Clear,260,2014-03-12 00:15:00
7:35 PM,78.1,19.2,11,29.76,10.0,West,13.8,17.3,N/A,,Clear,260,2014-03-12 00:35:00
7:55 PM,75.0,18.3,12,29.77,10.0,WSW,10.4,-,N/A,,Clear,250,2014-03-12 00:55:00
8:15 PM,71.8,17.2,13,29.77,10.0,WSW,10.4,-,N/A,,Clear,250,2014-03-12 01:15:00
8:35 PM,69.6,16.5,13,29.79,10.0,WSW,9.2,-,N/A,,Clear,240,2014-03-12 01:35:00
8:55 PM,67.1,15.8,14,29.80,10.0,SW,6.9,-,N/A,,Clear,220,2014-03-12 01:55:00
9:15 PM,61.9,15.8,17,29.81,10.0,SSW,8.1,-,N/A,,Clear,210,2014-03-12 02:15:00
9:35 PM,61.2,15.8,17,29.82,10.0,SW,9.2,-,N/A,,Clear,230,2014-03-12 02:35:00
9:55 PM,61.0,14.5,16,29.84,10.0,WSW,9.2,-,N/A,,Clear,240,2014-03-12 02:55:00
10:15 PM,61.5,14.5,16,29.85,10.0,WSW,10.4,-,N/A,,Clear,250,2014-03-12 03:15:00
10:35 PM,60.6,14.9,17,29.88,10.0,WNW,9.2,19.6,N/A,,Clear,300,2014-03-12 03:35:00
10:55 PM,63.1,16.0,16,29.90,10.0,NNW,10.4,-,N/A,,Clear,330,2014-03-12 03:55:00
11:15 PM,60.8,15.4,17,29.91,10.0,West,8.1,-,N/A,,Clear,270,2014-03-12 04:15:00
11:35 PM,58.3,14.7,18,29.91,10.0,West,11.5,-,N/A,,Clear,260,2014-03-12 04:35:00
11:55 PM,63.0,17.2,17,29.98,5.0,North,29.9,40.3,N/A,,Haze,10,2014-03-12 04:55:00